Total_Precipitation_Accumulation
0.11 0.08 0.09 0.12 0.08 0.04 0.01 0.00 0.00 0.00 0.00 0.00 0.00 0.00 0.00 0.01 0.01 0.02 0.02 0.02 0.02 0.04 0.13 0.29 0.45 0.51 0.55 0.55 0.52 0.49 0.51 0.53 0.56 0.57 0.57 0.54 0.53 0.55 0.60 0.61 0.58 0.57 0.56 0.59 0.65 0.67 0.65 0.61 0.55
0.13 0.13 0.16 0.17 0.08 0.02 0.00 0.00 0.00 0.00 0.00 0.00 0.00 0.00 0.00 0.01 0.01 0.01 0.03 0.03 0.02 0.05 0.13 0.22 0.40 0.50 0.54 0.54 0.54 0.56 0.58 0.59 0.66 0.66 0.62 0.58 0.57 0.58 0.61 0.60 0.58 0.57 0.55 0.55 0.58 0.55 0.54 0.48 0.40
0.21 0.24 0.23 0.18 0.07 0.01 0.00 0.00 0.00 0.00 0.00 0.00 0.00 0.00 0.01 0.01 0.02 0.02 0.03 0.04 0.04 0.07 0.14 0.27 0.43 0.52 0.55 0.59 0.60 0.61 0.62 0.67 0.73 0.73 0.71 0.70 0.69 0.65 0.65 0.63 0.59 0.53 0.52 0.51 0.53 0.48 0.47 0.43 0.39
0.31 0.35 0.28 0.16 0.03 0.01 0.00 0.00 0.00 0.00 0.00 0.00 0.00 0.01 0.01 0.01 0.02 0.04 0.04 0.06 0.06 0.09 0.17 0.31 0.46 0.57 0.60 0.63 0.63 0.64 0.66 0.70 0.74 0.73 0.71 0.73 0.79 0.75 0.66 0.62 0.62 0.56 0.51 0.52 0.51 0.46 0.46 0.42 0.37
0.44 0.39 0.28 0.12 0.02 0.00 0.00 0.00 0.00 0.00 0.00 0.00 0.00 0.01 0.02 0.02 0.03 0.05 0.06 0.07 0.09 0.13 0.20 0.34 0.52 0.63 0.68 0.69 0.70 0.72 0.75 0.75 0.74 0.73 0.71 0.72 0.75 0.76 0.69 0.61 0.58 0.55 0.53 0.55 0.55 0.48 0.46 0.45 0.42
0.53 0.42 0.23 0.08 0.01 0.00 0.00 0.00 0.00 0.00 0.00 0.00 0.01 0.02 0.04 0.05 0.06 0.06 0.07 0.09 0.12 0.17 0.25 0.40 0.64 0.73 0.76 0.80 0.75 0.77 0.83 0.85 0.81 0.76 0.74 0.76 0.76 0.73 0.71 0.64 0.59 0.56 0.54 0.52 0.49 0.46 0.41 0.41 0.42
0.60 0.42 0.19 0.06 0.02 0.01 0.01 0.00 0.00 0.00 0.00 0.01 0.02 0.03 0.06 0.11 0.12 0.10 0.11 0.12 0.16 0.22 0.32 0.47 0.67 0.80 0.91 0.92 0.86 0.84 0.84 0.89 0.87 0.82 0.78 0.76 0.76 0.72 0.70 0.67 0.62 0.57 0.54 0.52 0.47 0.44 0.40 0.36 0.35
0.65 0.55 0.26 0.08 0.03 0.02 0.01 0.01 0.01 0.01 0.01 0.01 0.02 0.04 0.06 0.12 0.16 0.18 0.19 0.19 0.22 0.29 0.40 0.54 0.70 0.81 0.91 1.00 0.96 0.91 0.89 0.89 0.92 0.88 0.84 0.80 0.78 0.79 0.73 0.65 0.66 0.61 0.57 0.56 0.52 0.49 0.45 0.39 0.34
0.80 0.73 0.35 0.11 0.06 0.04 0.02 0.03 0.03 0.02 0.03 0.04 0.03 0.04 0.06 0.12 0.19 0.26 0.31 0.34 0.35 0.41 0.51 0.61 0.74 0.88 0.99 1.03 0.99 1.03 1.02 1.03 1.04 0.99 0.97 0.94 0.90 0.87 0.80 0.67 0.65 0.66 0.63 0.59 0.58 0.53 0.51 0.45 0.33
0.88 0.69 0.30 0.12 0.09 0.08 0.06 0.05 0.05 0.05 0.05 0.05 0.06 0.08 0.13 0.21 0.30 0.31 0.33 0.36 0.39 0.45 0.56 0.67 0.76 0.91 1.10 1.15 1.15 1.22 1.14 1.10 1.13 1.00 0.96 0.99 0.97 0.98 0.87 0.78 0.71 0.70 0.69 0.67 0.64 0.61 0.56 0.49 0.35
0.74 0.51 0.25 0.15 0.14 0.14 0.11 0.08 0.07 0.08 0.07 0.07 0.09 0.11 0.18 0.26 0.34 0.37 0.36 0.37 0.38 0.47 0.60 0.70 0.80 0.96 1.13 1.18 1.18 1.19 1.20 1.12 1.14 1.11 0.98 0.95 1.00 0.98 0.98 0.92 0.90 0.84 0.77 0.75 0.73 0.72 0.66 0.59 0.48
0.63 0.41 0.27 0.21 0.18 0.20 0.18 0.15 0.12 0.08 0.06 0.07 0.11 0.14 0.19 0.27 0.31 0.36 0.43 0.46 0.48 0.55 0.65 0.75 0.88 1.03 1.18 1.24 1.28 1.21 1.14 1.09 1.04 1.11 1.11 1.03 0.96 0.90 0.85 0.84 0.80 0.78 0.74 0.74 0.74 0.72 0.68 0.68 0.63
0.60 0.42 0.29 0.22 0.21 0.21 0.21 0.19 0.17 0.10 0.06 0.09 0.13 0.19 0.22 0.27 0.29 0.35 0.46 0.54 0.56 0.58 0.68 0.76 0.90 1.01 1.20 1.39 1.38 1.35 1.21 1.09 1.07 1.10 1.12 1.07 0.99 0.91 0.85 0.79 0.81 0.75 0.69 0.66 0.66 0.62 0.56 0.53 0.54
0.53 0.43 0.34 0.27 0.24 0.23 0.24 0.21 0.21 0.13 0.12 0.15 0.19 0.21 0.25 0.29 0.34 0.41 0.47 0.54 0.59 0.63 0.72 0.79 0.92 1.00 1.13 1.32 1.39 1.41 1.35 1.28 1.24 1.14 1.08 1.08 1.07 0.98 0.91 0.84 0.80 0.78 0.73 0.70 0.65 0.59 0.52 0.45 0.41
0.54 0.56 0.44 0.31 0.27 0.26 0.31 0.30 0.24 0.16 0.19 0.20 0.22 0.23 0.27 0.32 0.36 0.42 0.45 0.50 0.58 0.68 0.78 0.87 0.97 1.09 1.12 1.19 1.39 1.44 1.45 1.40 1.37 1.24 1.18 1.18 1.14 1.11 1.04 0.96 0.88 0.79 0.73 0.72 0.73 0.67 0.57 0.49 0.43
0.72 0.79 0.64 0.35 0.28 0.29 0.43 0.38 0.20 0.19 0.27 0.27 0.26 0.28 0.32 0.37 0.42 0.46 0.48 0.53 0.63 0.73 0.83 0.99 1.06 1.11 1.13 1.13 1.30 1.43 1.47 1.51 1.50 1.47 1.36 1.30 1.25 1.20 1.16 1.10 1.05 1.00 0.89 0.79 0.73 0.69 0.62 0.54 0.48
1.01 0.89 0.60 0.39 0.31 0.36 0.45 0.40 0.23 0.21 0.31 0.34 0.32 0.31 0.34 0.41 0.46 0.49 0.52 0.55 0.62 0.68 0.83 1.02 1.12 1.15 1.18 1.21 1.26 1.46 1.51 1.50 1.57 1.63 1.58 1.48 1.44 1.33 1.26 1.20 1.17 1.21 1.17 1.00 0.84 0.74 0.64 0.57 0.50
0.98 0.71 0.50 0.41 0.35 0.39 0.44 0.38 0.27 0.26 0.32 0.31 0.31 0.32 0.35 0.40 0.41 0.47 0.54 0.62 0.67 0.69 0.85 1.05 1.22 1.29 1.29 1.35 1.33 1.46 1.62 1.51 1.46 1.53 1.58 1.59 1.57 1.49 1.41 1.30 1.21 1.22 1.28 1.25 1.07 0.86 0.75 0.65 0.59
0.67 0.65 0.51 0.38 0.37 0.42 0.41 0.39 0.34 0.29 0.31 0.29 0.25 0.29 0.36 0.35 0.35 0.44 0.54 0.68 0.77 0.79 0.86 1.02 1.19 1.31 1.34 1.37 1.36 1.30 1.43 1.48 1.36 1.28 1.43 1.62 1.70 1.71 1.65 1.49 1.39 1.32 1.27 1.23 1.18 1.06 0.94 0.82 0.72
0.70 0.71 0.54 0.39 0.39 0.49 0.47 0.44 0.34 0.27 0.29 0.27 0.24 0.26 0.34 0.35 0.38 0.45 0.52 0.66 0.74 0.83 0.86 0.96 1.14 1.26 1.24 1.23 1.30 1.31 1.34 1.42 1.43 1.32 1.33 1.48 1.68 1.82 1.95 1.81 1.62 1.49 1.39 1.33 1.25 1.15 1.11 1.02 0.88
0.73 0.63 0.51 0.49 0.49 0.57 0.61 0.57 0.35 0.28 0.27 0.27 0.27 0.29 0.34 0.35 0.38 0.44 0.49 0.59 0.70 0.83 0.87 0.83 0.98 1.24 1.28 1.25 1.38 1.46 1.56 1.60 1.60 1.47 1.32 1.36 1.47 1.57 1.67 1.79 1.65 1.59 1.52 1.44 1.33 1.22 1.18 1.16 1.05
0.68 0.41 0.42 0.52 0.67 0.71 0.65 0.79 0.43 0.29 0.27 0.26 0.28 0.33 0.35 0.35 0.37 0.44 0.49 0.58 0.65 0.80 0.94 0.89 0.91 1.11 1.34 1.32 1.33 1.36 1.45 1.49 1.50 1.43 1.31 1.30 1.41 1.49 1.51 1.62 1.67 1.51 1.41 1.35 1.30 1.24 1.16 1.17 1.16
0.52 0.36 0.43 0.58 0.76 0.77 0.62 0.77 0.49 0.28 0.30 0.26 0.24 0.26 0.29 0.33 0.38 0.45 0.49 0.57 0.66 0.80 0.97 1.02 1.00 1.02 1.24 1.30 1.25 1.27 1.29 1.36 1.47 1.49 1.42 1.34 1.41 1.52 1.56 1.56 1.62 1.65 1.48 1.28 1.21 1.23 1.23 1.18 1.14
0.48 0.56 0.70 0.82 1.07 1.14 0.51 0.54 0.52 0.41 0.41 0.32 0.25 0.26 0.27 0.32 0.39 0.45 0.50 0.60 0.71 0.84 1.01 1.08 1.09 1.04 1.11 1.32 1.29 1.20 1.20 1.22 1.33 1.45 1.54 1.50 1.45 1.49 1.55 1.57 1.54 1.56 1.58 1.48 1.28 1.20 1.21 1.17 1.13
0.77 1.12 1.70 1.82 1.66 0.96 0.29 0.34 0.49 0.40 0.39 0.35 0.30 0.30 0.29 0.31 0.35 0.41 0.50 0.63 0.70 0.80 0.96 1.07 1.07 1.06 1.06 1.21 1.30 1.21 1.15 1.14 1.16 1.27 1.39 1.47 1.47 1.43 1.45 1.51 1.53 1.49 1.47 1.49 1.42 1.30 1.23 1.18 1.16
0.81 0.97 1.31 1.27 0.81 0.38 0.22 0.32 0.40 0.34 0.28 0.28 0.28 0.30 0.29 0.28 0.29 0.36 0.44 0.55 0.65 0.72 0.85 0.98 1.04 1.00 1.00 1.13 1.29 1.30 1.23 1.21 1.12 1.17 1.28 1.34 1.36 1.33 1.30 1.32 1.35 1.33 1.29 1.31 1.35 1.31 1.20 1.19 1.21
0.71 0.72 0.64 0.88 0.59 0.39 0.30 0.28 0.28 0.22 0.19 0.23 0.26 0.28 0.29 0.30 0.31 0.34 0.42 0.47 0.54 0.65 0.76 0.85 1.01 1.06 1.02 1.04 1.21 1.39 1.41 1.32 1.20 1.12 1.19 1.24 1.26 1.28 1.31 1.30 1.27 1.17 1.15 1.13 1.13 1.17 1.12 1.12 1.14
0.62 0.68 0.82 1.13 0.94 0.55 0.30 0.28 0.39 0.31 0.28 0.26 0.26 0.27 0.26 0.30 0.36 0.39 0.41 0.44 0.49 0.56 0.65 0.74 0.91 1.04 1.06 1.02 1.09 1.25 1.47 1.46 1.34 1.28 1.16 1.17 1.18 1.21 1.26 1.29 1.27 1.20 1.10 1.09 1.08 1.04 0.99 1.02 1.05
0.65 0.83 1.01 1.05 0.81 0.67 0.42 0.36 0.42 0.38 0.31 0.27 0.25 0.23 0.23 0.27 0.33 0.36 0.37 0.44 0.48 0.52 0.62 0.70 0.80 0.93 0.99 0.94 0.98 1.07 1.26 1.46 1.47 1.37 1.23 1.11 1.11 1.11 1.10 1.15 1.19 1.18 1.12 1.08 1.12 1.07 0.99 0.99 1.00
0.60 0.73 0.87 1.07 0.79 0.52 0.46 0.38 0.27 0.25 0.26 0.24 0.22 0.21 0.21 0.25 0.27 0.28 0.32 0.42 0.47 0.51 0.58 0.64 0.73 0.86 0.93 0.91 0.93 0.98 1.06 1.22 1.42 1.38 1.24 1.11 1.07 1.09 1.09 1.08 1.11 1.11 1.13 1.12 1.11 1.07 1.00 0.99 0.99